STARLINK-1056 (44761 NORAD) Tracking and Keplerian Element Data

This shows tracking and keplerian element data for the satellite.

Feedback or suggestion? Click here.




ElementValue
Catalog44761
NameSTARLINK-1056
Epoch Orbit2090
Epoch Day87.91667824
Epoch Year2020
RAAN260.454
Inclination53.0232
Eccentricity0.0001853
Argument of Perigee92.3884
Mean Anonmoly223.5538
Mean Motion15.05542626
Decay Rate0.00039355
L11 44761U 19074BA 20087.91667824 .00039355 00000-0 27079-2 0 9995
L22 44761 53.0232 260.4540 0001853 92.3884 223.5538 15.05542626 20906

Live tracking and technical data element details for STARLINK-1056 (NORAD 44761). STARLINK-1056 can be tracked NOW for your location showing map with azimuth and elevation plus other details from your city location.

Track the satellite on the map from your city or location and see movement details for azimuth, elevation, latitude, longitude, range, height, and movement on the map or in text.







IsCatalogInMostPopularTable: catalog: 44761, numindb: 41
Update: records affected: 1



GetName: 44761 STARLINK-1056

Hit Count: updated at: Mon, 30 Mar 2020 12:33:32 GMT